This demonstration page uses our WeatherBlox Daily Observations layout. Learn more.

Left ArrowRight Arrow

31.84235, -102.49876

Hourly Observations for October 2, 2022

Temp ( °F °C ) Dew Point ( °F °C ) Humidity (%) Winds ( mph kmh ) Pressure ( in mb ) Visibility ( mi km ) Precip ( " mm )
12:53 am 00:53 Clear 71 21.7 45 7.2 39 39 SE 7 11 29.98 1015 10 16 0.00 0.00
1:53 am 01:53 Clear 69 20.6 47 8.3 45 45 SE 7 11 29.98 1015 10 16 0.00 0.00
2:53 am 02:53 Clear 68 20 48 8.9 49 49 SE 7 11 29.99 1016 10 16 0.00 0.00
3:53 am 03:53 Clear 67 19.4 49 9.4 52 52 SE 8 13 29.99 1016 10 16 0.00 0.00
4:53 am 04:53 Clear 65 18.3 50 10 58 58 SE 7 11 29.99 1016 10 16 0.00 0.00
5:53 am 05:53 Clear 65 18.3 49 9.4 56 56 ESE 6 9 30.01 1016 10 16 0.00 0.00
6:53 am 06:53 Clear 64 17.8 50 10 60 60 ESE 7 11 30.03 1017 10 16 0.00 0.00
7:53 am 07:53 Sunny 62 16.7 45 7.2 53 53 ESE 8 13 30.06 1018 10 16 0.00 0.00
8:53 am 08:53 Sunny 65 18.3 45 7.2 48 48 ESE 7 11 30.09 1019 10 16 0.00 0.00
9:53 am 09:53 Sunny 70 21.1 50 10 49 49 SSE 8 13 30.11 1020 10 16 0.00 0.00
10:53 am 10:53 Sunny 74 23.3 52 11.1 46 46 SSE 12 19 30.11 1020 10 16 0.00 0.00
11:53 am 11:53 Sunny 77 25 53 11.7 43 43 S 8 13 30.10 1019 10 16 0.00 0.00
12:53 pm 12:53 Sunny 80 26.7 52 11.1 38 38 SE 5 7 30.07 1018 10 16 0.00 0.00
1:53 pm 13:53 Sunny 81 27.2 50 10 34 34 SE 9 15 30.06 1018 10 16 0.00 0.00
2:53 pm 14:53 Sunny 82 27.8 49 9.4 32 32 S 12 19 30.04 1017 10 16 0.00 0.00
3:53 pm 15:53 Sunny 82 27.8 47 8.3 29 29 S 15 24 30.02 1017 10 16 0.00 0.00
4:53 pm 16:53 Mostly Sunny 83 28.3 47 8.3 28 28 E 8 13 30.01 1016 10 16 0.00 0.00
5:34 pm 17:34 Mostly Sunny 83 28.3 47 8.3 28 28 SSE 8 13 29.93 1014 10 16 0.00 0.00
5:53 pm 17:53 Mostly Sunny 83 28.3 46 7.8 28 28 SSE 12 19 30.02 1017 10 16 0.00 0.00
6:13 pm 18:13 Mostly Sunny 83 28.3 46 7.8 28 28 S 9 15 29.93 1014 10 16 0.00 0.00
6:53 pm 18:53 Sunny 82 27.8 45 7.2 27 27 SE 9 15 30.02 1017 10 16 0.00 0.00
7:53 pm 19:53 Clear 78 25.6 46 7.8 32 32 SE 7 11 30.04 1017 10 16 0.00 0.00
8:53 pm 20:53 Clear 75 23.9 45 7.2 34 34 SSE 7 11 30.06 1018 10 16 0.00 0.00
9:53 pm 21:53 Clear 74 23.3 45 7.2 36 36 SE 9 15 30.06 1018 10 16 0.00 0.00
10:53 pm 22:53 Clear 73 22.8 45 7.2 37 37 SSE 8 13 30.07 1018 10 16 0.00 0.00
11:53 pm 23:53 Clear 70 21.1 46 7.8 42 42 S 8 13 30.07 1018 10 16 0.00 0.00

Powered by AerisWeather